| time (UTC) | temp F | wind direction | speed knots | gust knots | rain 1hr in | rain 24hr in | rain mn in | humidity % | barometer mb |
| 20260507111050 | 51 | 279 | 0.9 | 5.2 | 0.00 | 0.23 | 0.03 | 80 | 1012.6 |
| 20260507110547 | 51 | 294 | 1.7 | 4.3 | 0.00 | 0.23 | 0.03 | 80 | 1012.3 |
| 20260507110053 | 51 | 350 | 0.9 | 4.3 | 0.00 | 0.23 | 0.03 | 80 | 1012.4 |
| 20260507105548 | 51 | 0 | 0.9 | 4.3 | 0.00 | 0.23 | 0.03 | 80 | 1012.3 |
| 20260507105049 | 51 | 4 | 0.0 | 7.0 | 0.00 | 0.23 | 0.03 | 81 | 1012.1 |
| 20260507104555 | 51 | 352 | 0.9 | 7.0 | 0.00 | 0.23 | 0.03 | 81 | 1012.1 |
| 20260507104048 | 51 | 357 | 1.7 | 7.0 | 0.00 | 0.23 | 0.03 | 83 | 1012.2 |
| 20260507103549 | 51 | 283 | 0.9 | 3.5 | 0.00 | 0.23 | 0.03 | 84 | 1012.1 |
| 20260507103055 | 51 | 350 | 0.9 | 3.5 | 0.00 | 0.23 | 0.03 | 85 | 1012.1 |
| 20260507102544 | 51 | 338 | 0.0 | 5.2 | 0.00 | 0.23 | 0.03 | 85 | 1012.1 |
| 20260507102049 | 51 | 0 | 0.0 | 7.0 | 0.00 | 0.23 | 0.03 | 86 | 1011.9 |
| 20260507101607 | 51 | 335 | 0.9 | 7.0 | 0.00 | 0.23 | 0.03 | 86 | 1011.9 |
| 20260507101050 | 51 | 344 | 1.7 | 7.0 | 0.00 | 0.23 | 0.03 | 87 | 1011.7 |
| 20260507100548 | 52 | 18 | 1.7 | 3.5 | 0.00 | 0.23 | 0.03 | 88 | 1011.6 |
| 20260507100057 | 52 | 18 | 0.0 | 3.5 | 0.00 | 0.23 | 0.03 | 88 | 1011.7 |
| 20260507095548 | 52 | 18 | 0.0 | 3.5 | 0.00 | 0.23 | 0.03 | 88 | 1011.6 |
| 20260507095047 | 52 | 311 | 0.9 | 2.6 | 0.00 | 0.23 | 0.03 | 88 | 1011.7 |
| 20260507094555 | 52 | 311 | 0.9 | 1.7 | 0.00 | 0.23 | 0.03 | 88 | 1011.5 |
| 20260507094048 | 52 | 311 | 0.0 | 0.9 | 0.00 | 0.23 | 0.03 | 88 | 1011.7 |
| 20260507093547 | 52 | 0 | 0.0 | 0.9 | 0.00 | 0.23 | 0.03 | 88 | 1011.7 |
| 20260507093059 | 52 | 0 | 0.0 | 0.9 | 0.00 | 0.23 | 0.03 | 88 | 1011.6 |
| 20260507092548 | 52 | 0 | 0.0 | 0.9 | 0.00 | 0.23 | 0.03 | 88 | 1011.6 |
| 20260507092048 | 52 | 0 | 0.0 | 1.7 | 0.00 | 0.23 | 0.03 | 88 | 1011.8 |
| 20260507091559 | 52 | 0 | 0.0 | 1.7 | 0.00 | 0.23 | 0.03 | 88 | 1011.7 |
| 20260507091049 | 52 | 0 | 0.0 | 1.7 | 0.00 | 0.23 | 0.03 | 88 | 1011.7 |
| 20260507090549 | 52 | 0 | 0.0 | 1.7 | 0.00 | 0.23 | 0.03 | 88 | 1011.6 |
| 20260507090113 | 52 | 0 | 0.0 | 2.6 | 0.00 | 0.23 | 0.03 | 88 | 1011.5 |
| 20260507085548 | 52 | 0 | 0.0 | 3.5 | 0.00 | 0.23 | 0.03 | 88 | 1011.5 |
| 20260507085045 | 52 | 311 | 0.9 | 3.5 | 0.00 | 0.23 | 0.03 | 88 | 1011.4 |
| 20260507084554 | 52 | 0 | 0.0 | 3.5 | 0.00 | 0.23 | 0.03 | 88 | 1011.3 |
| 20260507084048 | 52 | 332 | 0.9 | 3.5 | 0.00 | 0.23 | 0.03 | 88 | 1011.3 |
| 20260507083545 | 52 | 0 | 0.9 | 4.3 | 0.00 | 0.23 | 0.03 | 88 | 1011.3 |
| 20260507083100 | 52 | 358 | 0.9 | 4.3 | 0.00 | 0.23 | 0.03 | 88 | 1011.2 |
| 20260507082551 | 52 | 14 | 0.9 | 2.6 | 0.00 | 0.23 | 0.03 | 88 | 1011.0 |
| 20260507082048 | 52 | 349 | 0.0 | 1.7 | 0.00 | 0.23 | 0.03 | 88 | 1010.9 |
| 20260507081602 | 52 | 0 | 0.9 | 3.5 | 0.00 | 0.23 | 0.03 | 88 | 1010.9 |
| 20260507081048 | 52 | 349 | 0.0 | 4.3 | 0.00 | 0.23 | 0.03 | 88 | 1010.8 |
| 20260507080548 | 52 | 2 | 0.9 | 6.1 | 0.00 | 0.23 | 0.03 | 88 | 1010.7 |
| 20260507080050 | 52 | 357 | 1.7 | 6.1 | 0.00 | 0.23 | 0.03 | 88 | 1010.7 |
| 20260507075549 | 52 | 359 | 2.6 | 5.2 | 0.00 | 0.23 | 0.03 | 88 | 1010.8 |
| 20260507075048 | 52 | 322 | 2.6 | 6.1 | 0.00 | 0.23 | 0.03 | 88 | 1010.8 |
| 20260507074559 | 52 | 357 | 2.6 | 6.1 | 0.00 | 0.23 | 0.03 | 88 | 1010.8 |
| 20260507074044 | 52 | 24 | 1.7 | 7.8 | 0.00 | 0.23 | 0.03 | 88 | 1010.7 |
| 20260507073545 | 52 | 346 | 2.6 | 7.8 | 0.00 | 0.23 | 0.03 | 88 | 1010.7 |
| 20260507073051 | 52 | 8 | 2.6 | 7.8 | 0.00 | 0.23 | 0.03 | 88 | 1010.8 |
| 20260507072546 | 52 | 18 | 3.5 | 7.8 | 0.01 | 0.23 | 0.03 | 88 | 1010.9 |
| 20260507072046 | 53 | 355 | 1.7 | 7.8 | 0.01 | 0.23 | 0.03 | 88 | 1010.9 |
| 20260507071553 | 53 | 357 | 3.5 | 7.8 | 0.01 | 0.23 | 0.03 | 88 | 1011.1 |
| 20260507071047 | 53 | 7 | 2.6 | 7.0 | 0.02 | 0.23 | 0.03 | 88 | 1011.1 |
| 20260507070547 | 53 | 200 | 1.7 | 5.2 | 0.02 | 0.23 | 0.03 | 88 | 1011.3 |
| 20260507070057 | 53 | 200 | 1.7 | 5.2 | 0.02 | 0.23 | 0.03 | 88 | 1011.3 |
| 20260507065547 | 53 | 200 | 1.7 | 4.3 | 0.02 | 0.23 | 0.03 | 87 | 1011.2 |
| 20260507065045 | 53 | 200 | 0.9 | 4.3 | 0.02 | 0.23 | 0.03 | 87 | 1011.1 |
| 20260507064607 | 53 | 200 | 0.9 | 5.2 | 0.02 | 0.23 | 0.03 | 87 | 1011.1 |
| 20260507064048 | 53 | 56 | 1.7 | 5.2 | 0.02 | 0.23 | 0.03 | 86 | 1011.1 |
| 20260507063547 | 53 | 350 | 2.6 | 7.8 | 0.02 | 0.23 | 0.03 | 86 | 1011.3 |
| 20260507063103 | 54 | 352 | 2.6 | 7.8 | 0.02 | 0.23 | 0.03 | 85 | 1011.3 |
| 20260507062546 | 54 | 355 | 4.3 | 7.8 | 0.01 | 0.22 | 0.02 | 85 | 1011.2 |
| 20260507062046 | 54 | 11 | 3.5 | 9.6 | 0.01 | 0.22 | 0.02 | 85 | 1011.4 |
| 20260507061557 | 54 | 354 | 3.5 | 9.6 | 0.01 | 0.22 | 0.02 | 86 | 1011.5 |
| 20260507061045 | 54 | 18 | 2.6 | 7.8 | 0.00 | 0.21 | 0.01 | 86 | 1011.3 |
| 20260507060547 | 54 | 276 | 3.5 | 7.8 | 0.00 | 0.21 | 0.01 | 86 | 1011.5 |
| 20260507060051 | 55 | 356 | 3.5 | 7.8 | 0.00 | 0.21 | 0.01 | 87 | 1011.3 |
| 20260507055546 | 55 | 15 | 1.7 | 7.0 | 0.00 | 0.21 | 0.01 | 87 | 1011.2 |
| 20260507055046 | 55 | 315 | 1.7 | 7.0 | 0.00 | 0.21 | 0.01 | 88 | 1011.3 |
| 20260507054608 | 55 | 7 | 3.5 | 6.1 | 0.00 | 0.21 | 0.01 | 88 | 1011.1 |
| 20260507054045 | 55 | 21 | 2.6 | 5.2 | 0.00 | 0.21 | 0.01 | 88 | 1011.1 |
| 20260507053548 | 55 | 344 | 1.7 | 4.3 | 0.00 | 0.21 | 0.01 | 88 | 1011.3 |
| 20260507053052 | 55 | 14 | 0.9 | 4.3 | 0.00 | 0.21 | 0.01 | 88 | 1011.2 |
| 20260507052550 | 55 | 346 | 0.0 | 2.6 | 0.00 | 0.21 | 0.01 | 88 | 1011.2 |
| 20260507052048 | 55 | 346 | 0.9 | 5.2 | 0.00 | 0.21 | 0.01 | 87 | 1011.1 |
| 20260507051558 | 55 | 346 | 0.9 | 5.2 | 0.00 | 0.21 | 0.01 | 87 | 1011.1 |
| 20260507051046 | 55 | 8 | 1.7 | 5.2 | 0.00 | 0.21 | 0.01 | 87 | 1011.4 |
| 20260507050546 | 55 | 313 | 1.7 | 5.2 | 0.00 | 0.21 | 0.01 | 87 | 1011.7 |
| 20260507050053 | 55 | 343 | 0.9 | 5.2 | 0.01 | 0.21 | 0.01 | 88 | 1011.5 |
| 20260507045549 | 55 | 0 | 0.0 | 5.2 | 0.01 | 0.21 | 0.01 | 88 | 1011.3 |
| 20260507045049 | 55 | 0 | 0.9 | 6.1 | 0.01 | 0.21 | 0.01 | 88 | 1011.6 |
| 20260507044555 | 56 | 330 | 0.9 | 6.1 | 0.02 | 0.21 | 0.01 | 88 | 1011.6 |
| 20260507044046 | 56 | 328 | 1.7 | 6.1 | 0.02 | 0.21 | 0.01 | 88 | 1011.5 |
| 20260507043547 | 56 | 315 | 0.9 | 6.1 | 0.02 | 0.21 | 0.01 | 88 | 1011.6 |
| 20260507043052 | 56 | 334 | 1.7 | 5.2 | 0.02 | 0.21 | 0.01 | 88 | 1011.1 |
| 20260507042548 | 56 | 316 | 0.9 | 5.2 | 0.02 | 0.21 | 0.01 | 88 | 1011.1 |
| 20260507042045 | 57 | 0 | 0.9 | 3.5 | 0.02 | 0.21 | 0.01 | 88 | 1010.9 |
| 20260507041602 | 57 | 358 | 1.7 | 6.1 | 0.02 | 0.21 | 0.01 | 87 | 1010.6 |
| 20260507041047 | 57 | 0 | 0.0 | 6.1 | 0.03 | 0.21 | 0.01 | 87 | 1011.0 |
| 20260507040547 | 57 | 355 | 1.7 | 4.3 | 0.03 | 0.21 | 0.01 | 87 | 1011.2 |
| 20260507040056 | 57 | 2 | 0.0 | 3.5 | 0.02 | 0.20 | 0.00 | 87 | 1010.8 |
| 20260507035547 | 57 | 0 | 0.0 | 2.6 | 0.02 | 0.20 | 0.20 | 87 | 1011.1 |
| 20260507035047 | 58 | 314 | 0.0 | 3.5 | 0.02 | 0.20 | 0.20 | 86 | 1011.1 |
| 20260507034555 | 58 | 30 | 0.9 | 5.2 | 0.01 | 0.19 | 0.19 | 86 | 1011.0 |
| 20260507034047 | 58 | 30 | 1.7 | 6.1 | 0.01 | 0.19 | 0.19 | 86 | 1010.7 |
| 20260507033547 | 58 | 350 | 0.9 | 7.0 | 0.01 | 0.19 | 0.19 | 85 | 1010.6 |
| 20260507033052 | 58 | 322 | 1.7 | 10.4 | 0.01 | 0.19 | 0.19 | 85 | 1010.6 |
| 20260507032548 | 58 | 15 | 3.5 | 11.3 | 0.01 | 0.19 | 0.19 | 85 | 1010.3 |
| 20260507032048 | 59 | 26 | 3.5 | 11.3 | 0.01 | 0.19 | 0.19 | 85 | 1010.4 |
| 20260507031548 | 59 | 360 | 4.3 | 11.3 | 0.01 | 0.19 | 0.19 | 84 | 1010.6 |
| 20260507031046 | 59 | 39 | 3.5 | 11.3 | 0.00 | 0.18 | 0.18 | 83 | 1010.9 |
| 20260507030547 | 60 | 319 | 5.2 | 11.3 | 0.00 | 0.18 | 0.18 | 83 | 1010.7 |
| 20260507025545 | 60 | 16 | 4.3 | 9.6 | 0.00 | 0.18 | 0.18 | 84 | 1010.2 |
| 20260507025046 | 60 | 333 | 4.3 | 9.6 | 0.00 | 0.18 | 0.18 | 84 | 1010.1 |
| 20260507024551 | 60 | 36 | 1.7 | 5.2 | 0.01 | 0.18 | 0.18 | 85 | 1010.0 |
| 20260507024045 | 60 | 3 | 0.9 | 4.3 | 0.01 | 0.18 | 0.18 | 84 | 1010.4 |
| 20260507023545 | 60 | 348 | 1.7 | 4.3 | 0.01 | 0.18 | 0.18 | 84 | 1010.6 |
| 20260507023108 | 60 | 1 | 0.0 | 4.3 | 0.01 | 0.18 | 0.18 | 84 | 1010.4 |
| 20260507022548 | 60 | 0 | 0.9 | 4.3 | 0.01 | 0.18 | 0.18 | 84 | 1010.3 |
| 20260507022047 | 60 | 18 | 0.0 | 2.6 | 0.01 | 0.18 | 0.18 | 84 | 1010.3 |
| 20260507021554 | 60 | 0 | 0.0 | 2.6 | 0.01 | 0.18 | 0.18 | 83 | 1010.2 |
| 20260507021049 | 61 | 0 | 0.0 | 2.6 | 0.01 | 0.18 | 0.18 | 83 | 1010.2 |
| 20260507020547 | 61 | 319 | 0.0 | 4.3 | 0.01 | 0.18 | 0.18 | 83 | 1010.3 |
| 20260507020052 | 61 | 39 | 0.9 | 5.2 | 0.01 | 0.18 | 0.18 | 83 | 1010.2 |
| 20260507015546 | 61 | 292 | 1.7 | 5.2 | 0.01 | 0.18 | 0.18 | 83 | 1010.1 |
| 20260507015048 | 61 | 31 | 0.9 | 6.1 | 0.01 | 0.18 | 0.18 | 83 | 1010.0 |
| 20260507014606 | 61 | 251 | 1.7 | 6.1 | 0.00 | 0.17 | 0.17 | 83 | 1009.9 |
| 20260507014046 | 61 | 333 | 1.7 | 7.8 | 0.00 | 0.17 | 0.17 | 83 | 1009.9 |
| 20260507013548 | 61 | 13 | 0.9 | 7.8 | 0.00 | 0.17 | 0.17 | 83 | 1010.0 |
| 20260507013110 | 62 | 261 | 2.6 | 7.8 | 0.00 | 0.17 | 0.17 | 83 | 1010.2 |
| 20260507012547 | 62 | 280 | 2.6 | 7.8 | 0.00 | 0.17 | 0.17 | 82 | 1010.3 |
| 20260507012045 | 62 | 325 | 2.6 | 7.0 | 0.01 | 0.17 | 0.17 | 82 | 1010.1 |
| 20260507011552 | 62 | 309 | 1.7 | 8.7 | 0.01 | 0.17 | 0.17 | 82 | 1010.1 |
| 20260507011047 | 62 | 357 | 1.7 | 8.7 | 0.01 | 0.17 | 0.17 | 82 | 1010.2 |
| 20260507010545 | 63 | 293 | 2.6 | 9.6 | 0.01 | 0.17 | 0.17 | 82 | 1010.1 |
| 20260507010050 | 63 | 292 | 2.6 | 9.6 | 0.01 | 0.17 | 0.17 | 83 | 1010.3 |
| 20260507005546 | 64 | 289 | 1.7 | 9.6 | 0.01 | 0.17 | 0.17 | 83 | 1010.2 |
| 20260507005046 | 64 | 353 | 1.7 | 14.8 | 0.01 | 0.17 | 0.17 | 84 | 1010.1 |
| 20260507004550 | 64 | 269 | 2.6 | 14.8 | 0.01 | 0.17 | 0.17 | 86 | 1010.1 |
| 20260507004048 | 65 | 34 | 4.3 | 14.8 | 0.01 | 0.17 | 0.17 | 87 | 1010.1 |
| 20260507003547 | 65 | 276 | 2.6 | 7.0 | 0.01 | 0.17 | 0.17 | 87 | 1009.8 |
| 20260507003051 | 66 | 297 | 0.9 | 9.6 | 0.01 | 0.17 | 0.17 | 87 | 1009.6 |
| 20260507002548 | 66 | 0 | 3.5 | 9.6 | 0.01 | 0.17 | 0.17 | 87 | 1009.6 |
| 20260507002047 | 66 | 284 | 1.7 | 4.3 | 0.00 | 0.16 | 0.16 | 87 | 1009.7 |
| 20260507001609 | 66 | 273 | 1.7 | 6.1 | 0.00 | 0.16 | 0.16 | 86 | 1009.4 |
| 20260507001049 | 66 | 274 | 1.7 | 6.1 | 0.00 | 0.16 | 0.16 | 86 | 1009.4 |
| 20260507000546 | 67 | 277 | 0.9 | 3.5 | 0.00 | 0.16 | 0.16 | 85 | 1009.3 |
| 20260507000051 | 67 | 0 | 0.9 | 3.5 | 0.00 | 0.16 | 0.16 | 85 | 1009.3 |
| 20260506235548 | 67 | 348 | 1.7 | 3.5 | 0.00 | 0.16 | 0.16 | 85 | 1009.1 |
| 20260506235045 | 67 | 243 | 1.7 | 4.3 | 0.00 | 0.16 | 0.16 | 84 | 1009.0 |
| 20260506234552 | 67 | 187 | 1.7 | 4.3 | 0.00 | 0.16 | 0.16 | 83 | 1008.7 |
| 20260506234050 | 67 | 222 | 1.7 | 6.1 | 0.00 | 0.16 | 0.16 | 83 | 1008.6 |
| 20260506233548 | 67 | 195 | 1.7 | 7.8 | 0.00 | 0.16 | 0.16 | 83 | 1008.7 |
| 20260506233059 | 67 | 229 | 2.6 | 7.8 | 0.00 | 0.16 | 0.16 | 82 | 1008.7 |
| 20260506232547 | 67 | 200 | 2.6 | 6.1 | 0.00 | 0.16 | 0.16 | 82 | 1008.7 |
| 20260506232049 | 67 | 195 | 0.9 | 4.3 | 0.00 | 0.16 | 0.16 | 82 | 1008.7 |
| 20260506231554 | 67 | 183 | 1.7 | 6.1 | 0.00 | 0.16 | 0.16 | 81 | 1008.6 |
| 20260506231048 | 68 | 195 | 1.7 | 8.7 | 0.00 | 0.16 | 0.16 | 81 | 1008.6 |
| 20260506230544 | 68 | 224 | 2.6 | 8.7 | 0.00 | 0.16 | 0.16 | 81 | 1008.6 |
| 20260506230055 | 68 | 240 | 2.6 | 7.8 | 0.00 | 0.16 | 0.16 | 81 | 1008.6 |
| 20260506225546 | 68 | 232 | 2.6 | 7.8 | 0.00 | 0.16 | 0.16 | 80 | 1008.7 |
| 20260506225048 | 68 | 250 | 2.6 | 7.8 | 0.00 | 0.16 | 0.16 | 80 | 1008.7 |
| 20260506224556 | 68 | 219 | 2.6 | 8.7 | 0.00 | 0.16 | 0.16 | 80 | 1008.8 |
| 20260506224045 | 68 | 240 | 2.6 | 8.7 | 0.00 | 0.16 | 0.16 | 80 | 1008.3 |
| 20260506223549 | 68 | 264 | 4.3 | 7.8 | 0.00 | 0.16 | 0.16 | 80 | 1008.5 |
| 20260506223104 | 69 | 222 | 3.5 | 7.8 | 0.00 | 0.16 | 0.16 | 79 | 1008.6 |
| 20260506222548 | 69 | 138 | 3.5 | 7.8 | 0.00 | 0.16 | 0.16 | 80 | 1008.6 |
| 20260506222047 | 68 | 200 | 0.9 | 4.3 | 0.00 | 0.16 | 0.16 | 81 | 1008.6 |
| 20260506221559 | 68 | 231 | 1.7 | 4.3 | 0.00 | 0.16 | 0.16 | 81 | 1008.5 |
| 20260506221047 | 68 | 0 | 0.9 | 4.3 | 0.00 | 0.16 | 0.16 | 82 | 1008.5 |
| 20260506220548 | 67 | 231 | 2.6 | 7.8 | 0.00 | 0.16 | 0.16 | 82 | 1008.7 |
| 20260506220056 | 67 | 134 | 2.6 | 7.8 | 0.00 | 0.16 | 0.16 | 82 | 1008.6 |
| 20260506215546 | 67 | 200 | 1.7 | 4.3 | 0.00 | 0.16 | 0.16 | 83 | 1008.6 |
| 20260506215047 | 67 | 0 | 0.0 | 4.3 | 0.00 | 0.16 | 0.16 | 83 | 1008.6 |
| 20260506214604 | 67 | 209 | 0.9 | 7.0 | 0.00 | 0.16 | 0.16 | 83 | 1008.4 |
| 20260506214050 | 67 | 222 | 3.5 | 7.0 | 0.00 | 0.16 | 0.16 | 82 | 1008.5 |
| 20260506213550 | 67 | 195 | 2.6 | 7.0 | 0.00 | 0.16 | 0.16 | 82 | 1008.3 |
| 20260506213053 | 68 | 217 | 2.6 | 7.0 | 0.00 | 0.16 | 0.16 | 81 | 1008.3 |
| 20260506212548 | 68 | 215 | 2.6 | 7.0 | 0.00 | 0.16 | 0.16 | 80 | 1008.1 |
| 20260506212051 | 68 | 182 | 2.6 | 8.7 | 0.00 | 0.16 | 0.16 | 80 | 1008.1 |
| 20260506211556 | 68 | 245 | 2.6 | 8.7 | 0.00 | 0.16 | 0.16 | 80 | 1008.1 |
| 20260506211047 | 68 | 211 | 4.3 | 8.7 | 0.00 | 0.16 | 0.16 | 80 | 1008.0 |
| 20260506210546 | 68 | 200 | 1.7 | 7.8 | 0.00 | 0.16 | 0.16 | 81 | 1008.0 |
| 20260506205546 | 68 | 274 | 2.6 | 7.0 | 0.00 | 0.16 | 0.16 | 80 | 1007.9 |
| 20260506205045 | 68 | 223 | 2.6 | 8.7 | 0.00 | 0.16 | 0.16 | 80 | 1007.7 |
| 20260506204552 | 68 | 236 | 2.6 | 8.7 | 0.00 | 0.16 | 0.16 | 81 | 1007.6 |
| 20260506204045 | 68 | 274 | 2.6 | 7.0 | 0.00 | 0.16 | 0.16 | 80 | 1007.8 |
| 20260506203547 | 68 | 232 | 3.5 | 6.1 | 0.00 | 0.16 | 0.16 | 80 | 1007.7 |
| 20260506203055 | 68 | 151 | 1.7 | 7.0 | 0.00 | 0.16 | 0.16 | 81 | 1007.8 |
| 20260506202551 | 68 | 236 | 1.7 | 8.7 | 0.00 | 0.16 | 0.16 | 81 | 1008.0 |
| 20260506202048 | 68 | 195 | 4.3 | 8.7 | 0.00 | 0.16 | 0.16 | 80 | 1008.0 |
| 20260506201552 | 68 | 249 | 3.5 | 7.8 | 0.00 | 0.16 | 0.16 | 80 | 1007.8 |
| 20260506201050 | 68 | 169 | 2.6 | 7.8 | 0.00 | 0.16 | 0.16 | 81 | 1007.9 |
| 20260506200548 | 67 | 236 | 3.5 | 7.8 | 0.00 | 0.16 | 0.16 | 81 | 1008.0 |
| 20260506200136 | 67 | 195 | 2.6 | 6.1 | 0.00 | 0.16 | 0.16 | 80 | 1007.8 |
| 20260506195548 | 67 | 260 | 2.6 | 7.8 | 0.00 | 0.16 | 0.16 | 80 | 1008.0 |
| 20260506195049 | 67 | 224 | 1.7 | 7.8 | 0.00 | 0.16 | 0.16 | 81 | 1008.0 |
| 20260506194603 | 67 | 212 | 4.3 | 9.6 | 0.00 | 0.16 | 0.16 | 80 | 1007.9 |
| 20260506194047 | 67 | 209 | 3.5 | 9.6 | 0.00 | 0.16 | 0.16 | 80 | 1007.9 |
| 20260506193549 | 67 | 242 | 5.2 | 9.6 | 0.00 | 0.16 | 0.16 | 79 | 1008.0 |
| 20260506193054 | 67 | 176 | 3.5 | 8.7 | 0.00 | 0.16 | 0.16 | 79 | 1007.9 |
| 20260506192548 | 67 | 209 | 4.3 | 11.3 | 0.00 | 0.16 | 0.16 | 79 | 1007.8 |
| 20260506192048 | 67 | 267 | 7.0 | 11.3 | 0.00 | 0.16 | 0.16 | 80 | 1007.9 |
| 20260506191552 | 67 | 233 | 6.1 | 11.3 | 0.00 | 0.16 | 0.16 | 80 | 1008.0 |
| 20260506191048 | 67 | 183 | 2.6 | 11.3 | 0.00 | 0.16 | 0.16 | 81 | 1008.0 |
| 20260506190546 | 67 | 200 | 5.2 | 11.3 | 0.00 | 0.16 | 0.16 | 81 | 1008.0 |
| 20260506190052 | 67 | 230 | 4.3 | 11.3 | 0.00 | 0.16 | 0.16 | 81 | 1008.0 |
| 20260506185550 | 67 | 209 | 6.1 | 13.0 | 0.00 | 0.16 | 0.16 | 81 | 1008.1 |
| 20260506185048 | 67 | 217 | 6.1 | 13.0 | 0.00 | 0.16 | 0.16 | 81 | 1008.1 |
| 20260506184553 | 67 | 225 | 5.2 | 12.2 | 0.00 | 0.16 | 0.16 | 82 | 1008.2 |
| 20260506184048 | 66 | 224 | 6.1 | 13.0 | 0.00 | 0.16 | 0.16 | 82 | 1008.1 |
| 20260506183548 | 66 | 233 | 6.1 | 13.0 | 0.00 | 0.16 | 0.16 | 82 | 1008.3 |
| 20260506183052 | 66 | 171 | 5.2 | 11.3 | 0.00 | 0.16 | 0.16 | 82 | 1008.3 |
| 20260506182548 | 66 | 242 | 4.3 | 15.6 | 0.00 | 0.16 | 0.16 | 83 | 1008.3 |
| 20260506182048 | 65 | 209 | 6.1 | 15.6 | 0.00 | 0.16 | 0.16 | 84 | 1008.4 |
| 20260506181552 | 65 | 195 | 4.3 | 13.9 | 0.00 | 0.16 | 0.16 | 84 | 1008.4 |
| 20260506181047 | 65 | 209 | 6.1 | 13.9 | 0.00 | 0.16 | 0.16 | 84 | 1008.4 |
| 20260506180547 | 65 | 182 | 4.3 | 12.2 | 0.00 | 0.16 | 0.16 | 84 | 1008.5 |
| 20260506175548 | 64 | 220 | 5.2 | 14.8 | 0.00 | 0.16 | 0.16 | 85 | 1008.7 |
| 20260506175046 | 64 | 213 | 7.0 | 13.0 | 0.00 | 0.16 | 0.16 | 85 | 1008.7 |
| 20260506174550 | 64 | 239 | 7.8 | 12.2 | 0.00 | 0.16 | 0.16 | 85 | 1008.8 |
| 20260506174048 | 64 | 174 | 6.1 | 15.6 | 0.00 | 0.16 | 0.16 | 86 | 1008.8 |
| 20260506173548 | 64 | 238 | 5.2 | 15.6 | 0.00 | 0.16 | 0.16 | 86 | 1008.7 |
| 20260506173116 | 63 | 209 | 7.8 | 17.4 | 0.00 | 0.16 | 0.16 | 87 | 1008.7 |
| 20260506172549 | 63 | 195 | 6.1 | 17.4 | 0.00 | 0.16 | 0.16 | 87 | 1008.7 |
| 20260506172048 | 63 | 188 | 6.1 | 12.2 | 0.00 | 0.16 | 0.16 | 88 | 1008.7 |
| 20260506171601 | 63 | 167 | 6.1 | 13.0 | 0.00 | 0.16 | 0.16 | 88 | 1008.7 |
| 20260506171047 | 63 | 192 | 6.1 | 13.0 | 0.00 | 0.16 | 0.16 | 88 | 1008.6 |
| 20260506170549 | 62 | 234 | 5.2 | 13.0 | 0.00 | 0.16 | 0.16 | 88 | 1008.8 |
| 20260506170059 | 62 | 200 | 5.2 | 13.0 | 0.00 | 0.16 | 0.16 | 88 | 1008.8 |
| 20260506165546 | 62 | 224 | 7.8 | 13.0 | 0.00 | 0.16 | 0.16 | 89 | 1008.8 |
| 20260506165046 | 62 | 251 | 5.2 | 10.4 | 0.00 | 0.16 | 0.16 | 89 | 1008.7 |
| 20260506164555 | 62 | 226 | 5.2 | 16.5 | 0.00 | 0.16 | 0.16 | 90 | 1008.7 |
| 20260506164045 | 62 | 180 | 5.2 | 16.5 | 0.00 | 0.16 | 0.16 | 90 | 1008.8 |
| 20260506163545 | 62 | 240 | 7.8 | 13.9 | 0.00 | 0.16 | 0.16 | 90 | 1009.0 |
| 20260506163055 | 61 | 195 | 8.7 | 13.0 | 0.00 | 0.16 | 0.16 | 90 | 1008.8 |
| 20260506162549 | 61 | 172 | 5.2 | 11.3 | 0.00 | 0.16 | 0.16 | 90 | 1008.8 |
| 20260506162047 | 61 | 215 | 5.2 | 13.9 | 0.00 | 0.16 | 0.16 | 90 | 1008.7 |
| 20260506161556 | 61 | 186 | 5.2 | 13.9 | 0.00 | 0.16 | 0.16 | 90 | 1008.8 |
| 20260506161048 | 61 | 212 | 8.7 | 17.4 | 0.00 | 0.16 | 0.16 | 90 | 1009.0 |
| 20260506160545 | 61 | 163 | 10.4 | 17.4 | 0.00 | 0.16 | 0.16 | 90 | 1008.8 |
| 20260506160105 | 61 | 195 | 7.8 | 13.9 | 0.01 | 0.16 | 0.16 | 90 | 1009.0 |
| 20260506155548 | 61 | 209 | 6.1 | 15.6 | 0.01 | 0.16 | 0.16 | 90 | 1009.1 |
| 20260506155048 | 61 | 188 | 10.4 | 15.6 | 0.02 | 0.16 | 0.16 | 91 | 1009.2 |
| 20260506154556 | 61 | 222 | 6.1 | 18.2 | 0.03 | 0.16 | 0.16 | 91 | 1009.0 |
| 20260506154048 | 61 | 225 | 7.8 | 18.2 | 0.04 | 0.16 | 0.16 | 91 | 1008.8 |
| 20260506153545 | 61 | 181 | 7.0 | 16.5 | 0.04 | 0.16 | 0.16 | 91 | 1008.8 |
| 20260506153055 | 61 | 200 | 8.7 | 14.8 | 0.04 | 0.16 | 0.16 | 91 | 1008.7 |
| 20260506152545 | 61 | 200 | 6.1 | 13.9 | 0.05 | 0.16 | 0.16 | 91 | 1009.2 |
| 20260506152048 | 61 | 145 | 7.0 | 13.9 | 0.05 | 0.16 | 0.16 | 91 | 1009.3 |
| 20260506151554 | 60 | 211 | 8.7 | 13.9 | 0.05 | 0.16 | 0.16 | 91 | 1009.2 |
| 20260506151045 | 60 | 180 | 7.0 | 14.8 | 0.06 | 0.16 | 0.16 | 91 | 1009.2 |
| 20260506150545 | 60 | 173 | 7.8 | 15.6 | 0.06 | 0.16 | 0.16 | 91 | 1009.3 |
| 20260506150058 | 60 | 213 | 7.0 | 15.6 | 0.05 | 0.15 | 0.15 | 91 | 1009.5 |
| 20260506145548 | 60 | 214 | 7.8 | 15.6 | 0.05 | 0.15 | 0.15 | 91 | 1009.7 |
| 20260506145048 | 60 | 209 | 7.0 | 14.8 | 0.05 | 0.14 | 0.14 | 91 | 1009.8 |
| 20260506144555 | 60 | 192 | 5.2 | 14.8 | 0.05 | 0.13 | 0.13 | 91 | 1010.0 |
| 20260506144048 | 60 | 200 | 8.7 | 16.5 | 0.04 | 0.12 | 0.12 | 91 | 1009.9 |
| 20260506143550 | 60 | 184 | 9.6 | 16.5 | 0.05 | 0.12 | 0.12 | 91 | 1009.4 |
| 20260506143055 | 60 | 156 | 9.6 | 15.6 | 0.05 | 0.12 | 0.12 | 90 | 1009.5 |
| 20260506142548 | 61 | 171 | 7.0 | 15.6 | 0.04 | 0.11 | 0.11 | 90 | 1009.4 |
| 20260506142050 | 61 | 182 | 7.0 | 15.6 | 0.05 | 0.11 | 0.11 | 90 | 1009.3 |
| 20260506141553 | 61 | 179 | 7.8 | 13.9 | 0.05 | 0.11 | 0.11 | 90 | 1009.4 |
| 20260506141048 | 61 | 186 | 7.8 | 13.0 | 0.04 | 0.10 | 0.10 | 90 | 1009.5 |
| 20260506140551 | 61 | 195 | 7.0 | 15.6 | 0.05 | 0.10 | 0.10 | 90 | 1009.5 |
| 20260506140056 | 61 | 234 | 9.6 | 15.6 | 0.05 | 0.10 | 0.10 | 90 | 1009.5 |
| 20260506135547 | 61 | 153 | 8.7 | 15.6 | 0.05 | 0.10 | 0.10 | 90 | 1009.4 |
| 20260506135047 | 61 | 182 | 8.7 | 13.9 | 0.05 | 0.09 | 0.09 | 90 | 1009.4 |
| 20260506134618 | 61 | 195 | 7.8 | 12.2 | 0.04 | 0.08 | 0.08 | 90 | 1009.7 |
| 20260506134051 | 61 | 173 | 7.8 | 13.0 | 0.05 | 0.08 | 0.08 | 90 | 1009.9 |
| 20260506133547 | 61 | 200 | 6.1 | 13.0 | 0.05 | 0.07 | 0.07 | 89 | 1010.1 |
| 20260506133052 | 61 | 195 | 6.1 | 11.3 | 0.05 | 0.07 | 0.07 | 89 | 1010.2 |
| 20260506132547 | 61 | 186 | 4.3 | 10.4 | 0.06 | 0.07 | 0.07 | 89 | 1010.1 |
| 20260506132047 | 61 | 190 | 3.5 | 12.2 | 0.05 | 0.06 | 0.06 | 88 | 1009.9 |
| 20260506131607 | 61 | 192 | 6.1 | 12.2 | 0.06 | 0.06 | 0.06 | 88 | 1009.9 |
| 20260506131048 | 61 | 169 | 7.0 | 12.2 | 0.06 | 0.06 | 0.06 | 88 | 1009.9 |
| 20260506130547 | 61 | 222 | 4.3 | 10.4 | 0.05 | 0.05 | 0.05 | 87 | 1010.1 |
| 20260506130057 | 61 | 188 | 4.3 | 10.4 | 0.05 | 0.05 | 0.05 | 87 | 1009.9 |
| 20260506125548 | 61 | 188 | 4.3 | 8.7 | 0.05 | 0.05 | 0.05 | 86 | 1009.8 |
| 20260506125048 | 62 | 171 | 5.2 | 10.4 | 0.04 | 0.04 | 0.04 | 86 | 1009.8 |
| 20260506124557 | 62 | 179 | 3.5 | 10.4 | 0.04 | 0.04 | 0.04 | 85 | 1009.7 |
| 20260506124048 | 62 | 171 | 3.5 | 10.4 | 0.03 | 0.03 | 0.03 | 85 | 1009.7 |
| 20260506123548 | 62 | 182 | 4.3 | 10.4 | 0.02 | 0.02 | 0.02 | 84 | 1009.8 |
| 20260506123056 | 62 | 217 | 5.2 | 9.6 | 0.02 | 0.02 | 0.02 | 83 | 1009.8 |
| 20260506122548 | 62 | 191 | 4.3 | 8.7 | 0.01 | 0.01 | 0.01 | 82 | 1009.9 |
| 20260506122048 | 63 | 200 | 3.5 | 9.6 | 0.01 | 0.01 | 0.01 | 81 | 1009.9 |
| 20260506121605 | 63 | 192 | 4.3 | 12.2 | 0.00 | 0.00 | 0.00 | 80 | 1010.0 |
| 20260506121045 | 63 | 217 | 4.3 | 12.2 | 0.00 | 0.00 | 0.00 | 80 | 1010.0 |
| 20260506120545 | 63 | 205 | 4.3 | 14.8 | 0.00 | 0.00 | 0.00 | 79 | 1010.1 |
| 20260506120051 | 63 | 169 | 6.1 | 14.8 | 0.00 | 0.00 | 0.00 | 78 | 1010.2 |
| 20260506115546 | 64 | 217 | 6.1 | 14.8 | 0.00 | 0.00 | 0.00 | 77 | 1010.2 |
| 20260506115048 | 64 | 214 | 5.2 | 13.9 | 0.00 | 0.00 | 0.00 | 77 | 1010.2 |
| 20260506114553 | 64 | 188 | 4.3 | 11.3 | 0.00 | 0.00 | 0.00 | 76 | 1010.2 |
| 20260506114048 | 64 | 195 | 6.1 | 15.6 | 0.00 | 0.00 | 0.00 | 76 | 1010.1 |
| 20260506113546 | 64 | 195 | 5.2 | 15.6 | 0.00 | 0.00 | 0.00 | 75 | 1010.0 |
| 20260506113050 | 64 | 213 | 5.2 | 13.0 | 0.00 | 0.00 | 0.00 | 75 | 1009.9 |
| 20260506112547 | 64 | 205 | 7.0 | 13.0 | 0.00 | 0.00 | 0.00 | 75 | 1009.8 |
| 20260506112047 | 64 | 209 | 4.3 | 13.0 | 0.00 | 0.00 | 0.00 | 75 | 1009.6 |
| 20260506111610 | 64 | 178 | 5.2 | 13.0 | 0.00 | 0.00 | 0.00 | 75 | 1009.8 |